• Processing (Info)

  • MPEC 2019-T144 : 2019 TM3

    The following Minor Planet Electronic Circular may be linked-to from your own Web pages, but must not otherwise be redistributed electronically.

    A form allowing access to any MPEC is at the bottom of this page.


    Read MPEC 2019-T143 Read MPEC 2019-T145


    M.P.E.C. 2019-T144                              Issued 2019 October 8, 01:59 UT
    
         The Minor Planet Electronic Circulars contain information on unusual
             minor planets and routine data on comets.  They are published
        on behalf of Division F of the International Astronomical Union by the
              Minor Planet Center, Smithsonian Astrophysical Observatory,
                              Cambridge, MA 02138, U.S.A.
    
                 Prepared using the Tamkin Foundation Computer Network
    
                                  MPC@CFA.HARVARD.EDU
                URL https://www.minorplanetcenter.net/    ISSN 1523-6714
    
                                    2019 TM3                                 
    
    
    Observations:
         K19T03M* C2019 10 07.24114 00 57 15.10 +47 06 35.3                VET144G96
         K19T03M  C2019 10 07.24638 00 57 34.23 +47 01 16.3                VET144G96
         K19T03M  C2019 10 07.25163 00 57 53.48 +46 55 53.8          17.4 GVET144G96
         K19T03M  C2019 10 07.27600 00 59 23.45 +46 30 10.1          17.7 GVET144I52
         K19T03M  C2019 10 07.27613 00 59 23.91 +46 30 01.7                VET144I52
         K19T03M  C2019 10 07.27625 00 59 24.39 +46 29 53.5          18.3 GVET144I52
         K19T03M  C2019 10 07.46252 01 12 03.97 +42 24 24.0          18.7 GVET144I52
         K19T03M  C2019 10 07.46265 01 12 04.57 +42 24 11.7          18.4 GVET144I52
         K19T03M  C2019 10 07.46278 01 12 05.17 +42 23 59.5          17.8 GVET144I52
         K19T03M  C2019 10 07.46291 01 12 05.80 +42 23 47.6          16.9 GVET144I52
         K19T03M  C2019 10 07.47884 01 13 30.89 +41 55 43.8          16.6  rET144718
         K19T03M  C2019 10 07.47970 01 13 35.04 +41 54 20.0          16.9  rET144718
         K19T03M  C2019 10 07.47992 01 13 36.04 +41 53 59.5          17.1  rET144718
         K19T03M  C2019 10 07.48057 01 13 39.05 +41 52 56.4          16.8  rET144718
         K19T03M  C2019 10 07.48078 01 13 40.06 +41 52 35.1          17.0  rET144718
         K19T03M  C2019 10 07.51373 01 16 08.54 +40 59 38.8          18.1 GVET144I52
         K19T03M  C2019 10 07.51386 01 16 09.17 +40 59 25.2          17.2 GVET144I52
         K19T03M  C2019 10 07.51399 01 16 09.81 +40 59 11.6          16.7 GVET144I52
         K19T03M KC2019 10 07.83092 01 51 06.60 +28 59 05.2          17.4 GVET144595
         K19T03M KC2019 10 07.83222 01 51 15.08 +28 55 14.6          16.8 GVET144595
         K19T03M KC2019 10 07.83351 01 51 23.51 +28 51 23.6          17.1 GVET144595
         K19T03M KC2019 10 07.85065601 53 16.16 +27 59 50.2          16.3 GVET144L01
         K19T03M KC2019 10 07.85121501 53 19.82 +27 58 06.9          16.3 GVET144L01
         K19T03M  C2019 10 07.85129701 53 20.35 +27 57 51.7          16.0 GVET144L01
         K19T03M  C2019 10 07.85144401 53 21.32 +27 57 24.5          15.7 GVET144L01
         K19T03M KC2019 10 07.85184 01 53 41.11 +27 54 22.9          16.9 VqET144958
         K19T03M  C2019 10 07.85234401 53 27.21 +27 54 37.6          15.7 GVET144L01
         K19T03M KC2019 10 07.85399 01 53 55.49 +27 47 45.8          16.8 VqET144958
         K19T03M  C2019 10 07.85416701 53 39.14 +27 48 59.5          15.9 GVET144L01
         K19T03M KC2019 10 07.86050 01 54 39.14 +27 27 31.6          16.7 VqET144958
         K19T03M KC2019 10 07.89404 01 58 08.37 +25 40 32.4          16.0 GVET144104
         K19T03M KC2019 10 07.89686 01 58 27.41 +25 31 12.4          17.0 GVET144K83
         K19T03M KC2019 10 07.89750 01 58 31.63 +25 29 04.6          17.0 GVET144K83
         K19T03M KC2019 10 07.89773 01 58 32.97 +25 28 06.6          16.4 GVET144104
         K19T03M KC2019 10 07.89813601 58 23.15 +25 24 40.0          16.7 GVET144C47
         K19T03M KC2019 10 07.89814 01 58 35.90 +25 26 54.0          17.4 GVET144K83
         K19T03M KC2019 10 07.89912601 58 29.78 +25 21 18.6          16.5 GVET144C47
         K19T03M KC2019 10 07.90011601 58 36.40 +25 17 56.4          16.6 GVET144C47
         K19T03M KC2019 10 07.90065 01 58 52.49 +25 18 13.0          16.2 GVET144104
         K19T03M KC2019 10 07.90110501 58 43.04 +25 14 33.9          16.8 GVET144C47
         K19T03M KC2019 10 07.90209501 58 49.66 +25 11 11.1          16.5 GVET144C47
         K19T03M KC2019 10 07.91709 02 00 43.02 +24 21 32.3          16.9 RqET144160
         K19T03M KC2019 10 07.91752 02 00 45.93 +24 20 01.7          16.9 RqET144160
         K19T03M KC2019 10 07.91795 02 00 48.85 +24 18 30.4          16.9 RqET144160
         K19T03M KC2019 10 07.91839 02 00 51.83 +24 16 57.9          17.1 RqET144160
         K19T03M KC2019 10 07.91884 02 00 54.80 +24 15 24.2          16.7 RqET144160
         K19T03M KC2019 10 07.93215 02 02 25.43 +23 27 35.6          17.2 VqET144K63
         K19T03M KC2019 10 07.93299 02 02 31.05 +23 24 35.4          17.1 VqET144K63
         K19T03M  C2019 10 07.95297 02 04 47.52 +22 10 47.0          17.2 VqET144K63
         K19T03M KC2019 10 07.95351 02 04 51.24 +22 08 43.6          16.4 VqET144K63
    
    Observer details:
    104 San Marcello Pistoiese.  Observers P. Bacci, M. Maestripieri.  Measurers P. 
       Bacci, L. Tesi, G. Fagioli.  0.60-m reflector + CCD.
    160 Castelmartini.  Observers M. Jaeger, E. Prosperi, S. Prosperi.  Measurer E. 
       Prosperi.  0.35-m f/10 Schmidt-Cassegrain + CCD.
    595 Farra d'Isonzo.  Observer E. Pettarin.  0.40-m f/5.15 reflector + CCD.
    718 Tooele.  Observer P. Wiggins.  0.35-m f/5.5 Schmidt-Cassegrain + CCD.
    958 Observatoire de Dax.  Observers P. Dupouy, J. B. de Vanssay.  Measurer P. 
       Dupouy.  0.43-m f/2.7 reflector + CCD.
    C47 Nonndorf.  Observer G. Dangl.  0.25-m f/4.8 reflector + CCD.
    G96 Mt. Lemmon Survey.  Observer D. C. Fuls.  Measurers B. M. Africano, E. J. 
       Christensen, G. A. Farneth, D. C. Fuls, A. R. Gibbs, A. D. Grauer, H. 
       Groeller, R. A. Kowalski, S. M. Larson, G. J. Leonard, T. A. Pruyne, D. 
       Rankin, R. L. Seaman, F. C. Shelly.  1.5-m reflector + 10K CCD.
    I52 Steward Observatory, Mt. Lemmon Station.  Observer D. Rankin.  Measurers B. 
       M. Africano, E. J. Christensen, G. A. Farneth, D. C. Fuls, A. R. Gibbs, A. 
       D. Grauer, H. Groeller, R. A. Kowalski, S. M. Larson, G. J. Leonard, T. A. 
       Pruyne, D. Rankin, R. L. Seaman, F. C. Shelly.  1.0-m reflector + CCD.
    K63 G. Pascoli Observatory, Castelvecchio Pascoli.  Observer R. Bacci.  0.41-m 
       f/3.2 Newtonian reflector + CCD.
    K83 Beppe Forti Astronomical Observatory, Montelupo.  Observers M. Lombardo, M. 
       Tombelli, Y. Mazzanti, G. Interrante.  Measurers M. Tombelli, M. Lombardo, 
       A. Mazzanti, L. Grazzini.  0.3-m f/7.5 Ritchey-Chretien + CCD.
    L01 Visnjan Observatory, Tican.  Observer K. Korlevic.  1.0-m f/2.9 reflector + 
       CCD.
    
    Orbital elements:
    2019 TM3                                                 Earth MOID = 0.0029 AU
    Epoch 2019 Apr. 27.0 TT = JDT 2458600.5                 Veres
    M 147.44357              (2000.0)            P               Q
    n   0.90966325     Peri.  261.01244     -0.08227855     -0.99394394
    a   1.0549105      Node   194.32983     +0.99024033     -0.07328434
    e   0.1602453      Incl.   17.11553     +0.11249145     -0.08188314
    P   1.08           H   27.6           G   0.15           U   5
    Residuals in seconds of arc
    191007 G96  0.6+  1.0+    191007 I52  0.4-  0.9-    191007 C47  0.5-  0.6+
    191007 G96  0.3+  0.4+    191007 595  0.3-  0.4+    191007 K83 (2.3+  1.3-)
    191007 G96  0.5+  0.4+    191007 595  0.0   0.9+    191007 C47  0.5-  1.0+
    191007 I52  0.6+  0.2+    191007 595  0.4+  0.2-    191007 C47  0.6-  0.9+
    191007 I52  0.3+  0.2+    191007 L01  0.3+  0.2-    191007 104  0.3-  0.6+
    191007 I52  0.7+  0.2-    191007 L01  0.3+  0.2-    191007 C47  0.4-  0.7+
    191007 I52  0.0   1.2-    191007 L01  0.2+  0.2-    191007 C47  0.6-  0.8+
    191007 I52  0.0   1.2-    191007 L01  0.3+  0.2-    191007 160  0.5-  0.7+
    191007 I52  0.1+  1.1-    191007 958  0.4+  0.7-    191007 160  0.3-  0.8+
    191007 I52  0.4+  0.7-    191007 L01  0.3+  0.4-    191007 160  0.0   0.2+
    191007 718  1.2-  0.8+    191007 958  0.4+  0.5-    191007 160  0.2+  0.7+
    191007 718  0.3-  0.7+    191007 L01  0.2+  0.1+    191007 160  0.7-  2.1+
    191007 718  0.8-  1.6+    191007 958  1.0+  1.1-    191007 K63  1.6+  3.5-
    191007 718 (1.6-  1.9+)   191007 104  0.0   0.2+    191007 K63  0.4+  1.3-
    191007 718  1.4-  1.0+    191007 K83 (3.0+  2.5-)   191007 K63  0.3+  1.5-
    191007 I52  0.2-  0.8-    191007 K83 (2.3+  0.6-)   191007 K63 (0.4+  2.8-)
    191007 I52  0.3-  0.8-    191007 104  0.4-  0.1+
    
    Ephemeris:
    2019 TM3                 a,e,i = 1.05, 0.16, 17                  q = 0.8859
    Date    TT    R. A. (2000) Decl.     Delta      r    Elong.  Phase     V
    2019 09 08    22 44 26.0 +61 46 31   0.1703  1.0834   112.1    59.5    26.1
    ...
    2019 09 23    22 47 01.8 +63 23 51   0.08723 1.0436   115.0    60.6    24.6
    ...
    2019 10 01    23 02 03.5 +62 51 20   0.04199 1.0218   118.0    59.9    22.9
    ...
    2019 10 07    00 41 07.5 +50 31 23   0.0083401.0056   134.6    45.0    18.9
    2019 10 08    02 09 56.5 +19 25 18   0.0037721.0028   156.5    23.4    16.6
    2019 10 09    05 01 12.8 -53 13 56   0.0049111.0001   101.7    78.1    18.8
    ...
    2019 10 15    09 50 16.7 -66 13 57   0.03799 0.9837    67.9   110.1    24.6
    ...
    2019 10 23    10 19 24.0 -65 05 03   0.08301 0.9625    64.6   110.9    26.3
    ...
    2019 11 07    10 46 30.4 -63 30 36   0.1648  0.9266    62.5   108.5    27.6
    
    A. U. Tomatic                (C) Copyright 2019 MPC           M.P.E.C. 2019-T144
    


    Read MPEC 2019-T143 Read MPEC 2019-T145


    MPEC number:

    Enter an MPEC number in one of the following forms:

    • 1997-B01 (the full form)
    • J97B01 (the packed version of the full form)
    • B01 (the abbreviated form)